| time (UTC) | temp F | wind direction | speed knots | gust knots | rain 1hr in | rain 24hr in | rain mn in | humidity % | barometer mb |
| 20260502162012 | 84 | 117 | 3.5 | 10.4 | 0.00 | 0.00 | 0.00 | 29 | 1014.5 |
| 20260502161528 | 84 | 64 | 4.3 | 10.4 | 0.00 | 0.00 | 0.00 | 29 | 1014.4 |
| 20260502161011 | 83 | 80 | 3.5 | 12.2 | 0.00 | 0.00 | 0.00 | 29 | 1014.4 |
| 20260502160514 | 83 | 81 | 4.3 | 12.2 | 0.00 | 0.00 | 0.00 | 29 | 1014.4 |
| 20260502152012 | 80 | 94 | 0.9 | 3.5 | 0.00 | 0.00 | 0.00 | 28 | 1014.1 |
| 20260502151527 | 79 | 94 | 0.0 | 1.7 | 0.00 | 0.00 | 0.00 | 27 | 1014.0 |
| 20260502151011 | 78 | 94 | 0.0 | 0.9 | 0.00 | 0.00 | 0.00 | 28 | 1014.0 |
| 20260502150512 | 77 | 0 | 0.0 | 1.7 | 0.00 | 0.00 | 0.00 | 27 | 1014.1 |
| 20260502130508 | 63 | 0 | 0.0 | 1.7 | 0.00 | 0.00 | 0.00 | 38 | 1012.6 |
| 20260502123514 | 64 | 360 | 0.0 | 0.9 | 0.00 | 0.00 | 0.00 | 37 | 1011.9 |
| 20260502123028 | 64 | 0 | 0.0 | 0.9 | 0.00 | 0.00 | 0.00 | 37 | 1012.0 |
| 20260502122512 | 64 | 0 | 0.0 | 0.9 | 0.00 | 0.00 | 0.00 | 36 | 1011.9 |
| 20260502122011 | 64 | 0 | 0.0 | 0.9 | 0.00 | 0.00 | 0.00 | 35 | 1011.9 |
| 20260502121532 | 65 | 0 | 0.0 | 0.0 | 0.00 | 0.00 | 0.00 | 35 | 1011.8 |
| 20260502121011 | 65 | 0 | 0.0 | 0.0 | 0.00 | 0.00 | 0.00 | 34 | 1011.8 |
| 20260502120512 | 65 | 0 | 0.0 | 0.9 | 0.00 | 0.00 | 0.00 | 34 | 1011.6 |
| 20260502115511 | 65 | 0 | 0.0 | 0.9 | 0.00 | 0.00 | 0.00 | 33 | 1011.8 |
| 20260502115011 | 66 | 0 | 0.0 | 0.9 | 0.00 | 0.00 | 0.00 | 33 | 1011.7 |
| 20260502114526 | 66 | 360 | 0.0 | 1.7 | 0.00 | 0.00 | 0.00 | 33 | 1011.6 |
| 20260502114011 | 66 | 0 | 0.0 | 1.7 | 0.00 | 0.00 | 0.00 | 33 | 1011.6 |
| 20260502113511 | 66 | 0 | 0.0 | 0.9 | 0.00 | 0.00 | 0.00 | 32 | 1011.6 |
| 20260502113028 | 67 | 0 | 0.0 | 0.0 | 0.00 | 0.00 | 0.00 | 32 | 1011.5 |
| 20260502112510 | 67 | 0 | 0.0 | 0.9 | 0.00 | 0.00 | 0.00 | 32 | 1011.6 |
| 20260502112012 | 67 | 0 | 0.0 | 0.9 | 0.00 | 0.00 | 0.00 | 31 | 1011.6 |
| 20260502111530 | 67 | 360 | 0.0 | 0.9 | 0.00 | 0.00 | 0.00 | 32 | 1011.6 |
| 20260502111011 | 67 | 0 | 0.0 | 0.9 | 0.00 | 0.00 | 0.00 | 31 | 1011.6 |
| 20260502110513 | 67 | 0 | 0.0 | 1.7 | 0.00 | 0.00 | 0.00 | 31 | 1011.6 |
| 20260502110028 | 68 | 0 | 0.0 | 1.7 | 0.00 | 0.00 | 0.00 | 30 | 1011.5 |
| 20260502105508 | 68 | 360 | 0.0 | 1.7 | 0.00 | 0.00 | 0.00 | 31 | 1011.5 |
| 20260502105010 | 68 | 0 | 0.0 | 1.7 | 0.00 | 0.00 | 0.00 | 31 | 1011.6 |
| 20260502104527 | 68 | 0 | 0.0 | 1.7 | 0.00 | 0.00 | 0.00 | 31 | 1011.6 |
| 20260502104013 | 68 | 360 | 0.0 | 2.6 | 0.00 | 0.00 | 0.00 | 31 | 1011.4 |
| 20260502103511 | 68 | 0 | 0.0 | 2.6 | 0.00 | 0.00 | 0.00 | 30 | 1011.4 |
| 20260502103055 | 68 | 0 | 0.9 | 2.6 | 0.00 | 0.00 | 0.00 | 30 | 1011.3 |
| 20260502102511 | 68 | 360 | 0.0 | 2.6 | 0.00 | 0.00 | 0.00 | 30 | 1011.4 |
| 20260502102010 | 68 | 0 | 0.0 | 2.6 | 0.00 | 0.00 | 0.00 | 30 | 1011.2 |
| 20260502101545 | 68 | 0 | 0.0 | 2.6 | 0.00 | 0.00 | 0.00 | 30 | 1011.3 |
| 20260502101010 | 69 | 0 | 0.0 | 0.9 | 0.00 | 0.00 | 0.00 | 31 | 1011.3 |
| 20260502100510 | 69 | 0 | 0.0 | 1.7 | 0.00 | 0.00 | 0.00 | 32 | 1011.2 |
| 20260502091530 | 71 | 0 | 0.0 | 0.9 | 0.00 | 0.00 | 0.00 | 29 | 1010.8 |
| 20260502091016 | 71 | 0 | 0.0 | 1.7 | 0.00 | 0.00 | 0.00 | 29 | 1010.9 |
| 20260502090510 | 71 | 0 | 0.0 | 1.7 | 0.00 | 0.00 | 0.00 | 29 | 1010.8 |
| 20260502071529 | 74 | 0 | 0.0 | 0.9 | 0.00 | 0.00 | 0.00 | 23 | 1010.1 |
| 20260502071010 | 74 | 0 | 0.0 | 0.9 | 0.00 | 0.00 | 0.00 | 23 | 1010.1 |
| 20260502070512 | 75 | 0 | 0.0 | 0.9 | 0.00 | 0.00 | 0.00 | 22 | 1010.1 |
| 20260502070028 | 75 | 0 | 0.0 | 0.9 | 0.00 | 0.00 | 0.00 | 22 | 1010.0 |
| 20260502065512 | 75 | 0 | 0.0 | 0.9 | 0.00 | 0.00 | 0.00 | 21 | 1010.0 |
| 20260502065014 | 75 | 0 | 0.0 | 0.9 | 0.00 | 0.00 | 0.00 | 21 | 1009.9 |
| 20260502064536 | 75 | 360 | 0.0 | 1.7 | 0.00 | 0.00 | 0.00 | 21 | 1010.1 |
| 20260502064015 | 75 | 0 | 0.0 | 1.7 | 0.00 | 0.00 | 0.00 | 21 | 1010.0 |
| 20260502063510 | 75 | 0 | 0.0 | 1.7 | 0.00 | 0.00 | 0.00 | 21 | 1010.0 |
| 20260502063028 | 75 | 360 | 0.0 | 2.6 | 0.00 | 0.00 | 0.00 | 22 | 1010.1 |
| 20260502062512 | 76 | 0 | 0.0 | 2.6 | 0.00 | 0.00 | 0.00 | 22 | 1010.0 |
| 20260502062012 | 76 | 360 | 0.0 | 1.7 | 0.00 | 0.00 | 0.00 | 20 | 1010.1 |
| 20260502061528 | 76 | 0 | 0.0 | 1.7 | 0.00 | 0.00 | 0.00 | 20 | 1010.2 |
| 20260502061008 | 76 | 0 | 0.0 | 1.7 | 0.00 | 0.00 | 0.00 | 20 | 1010.2 |
| 20260502060507 | 76 | 0 | 0.0 | 2.6 | 0.00 | 0.00 | 0.00 | 21 | 1010.0 |
| 20260502060030 | 76 | 360 | 0.0 | 2.6 | 0.00 | 0.00 | 0.00 | 20 | 1010.0 |
| 20260502055510 | 76 | 360 | 0.0 | 2.6 | 0.00 | 0.00 | 0.00 | 20 | 1010.0 |
| 20260502055008 | 76 | 360 | 0.0 | 2.6 | 0.00 | 0.00 | 0.00 | 20 | 1009.9 |
| 20260502054548 | 76 | 0 | 0.0 | 2.6 | 0.00 | 0.00 | 0.00 | 20 | 1009.9 |
| 20260502054008 | 76 | 360 | 0.9 | 2.6 | 0.00 | 0.00 | 0.00 | 20 | 1009.8 |
| 20260502053510 | 76 | 360 | 0.0 | 2.6 | 0.00 | 0.00 | 0.00 | 21 | 1009.9 |
| 20260502053029 | 76 | 360 | 0.0 | 1.7 | 0.00 | 0.00 | 0.00 | 21 | 1009.9 |
| 20260502052511 | 76 | 0 | 0.0 | 1.7 | 0.00 | 0.00 | 0.00 | 20 | 1009.8 |
| 20260502052007 | 76 | 0 | 0.0 | 1.7 | 0.00 | 0.00 | 0.00 | 20 | 1009.8 |
| 20260502051528 | 77 | 0 | 0.0 | 1.7 | 0.00 | 0.00 | 0.00 | 21 | 1009.8 |
| 20260502051011 | 77 | 360 | 0.0 | 1.7 | 0.00 | 0.00 | 0.00 | 20 | 1009.7 |
| 20260502050509 | 77 | 0 | 0.0 | 0.9 | 0.00 | 0.00 | 0.00 | 21 | 1009.7 |
| 20260502050028 | 77 | 360 | 0.0 | 1.7 | 0.00 | 0.00 | 0.00 | 20 | 1009.7 |
| 20260502045509 | 78 | 0 | 0.0 | 1.7 | 0.00 | 0.00 | 0.00 | 21 | 1009.6 |
| 20260502045011 | 78 | 0 | 0.0 | 1.7 | 0.00 | 0.00 | 0.00 | 20 | 1009.6 |
| 20260502044529 | 78 | 360 | 0.0 | 1.7 | 0.00 | 0.00 | 0.00 | 20 | 1009.6 |
| 20260502044008 | 79 | 360 | 0.9 | 1.7 | 0.00 | 0.00 | 0.00 | 20 | 1009.6 |
| 20260502043511 | 79 | 0 | 0.0 | 0.9 | 0.00 | 0.00 | 0.00 | 20 | 1009.7 |
| 20260502043029 | 79 | 360 | 0.0 | 0.9 | 0.00 | 0.00 | 0.00 | 20 | 1009.6 |
| 20260502042512 | 79 | 0 | 0.0 | 1.7 | 0.00 | 0.00 | 0.00 | 20 | 1009.6 |
| 20260502042012 | 79 | 0 | 0.0 | 1.7 | 0.00 | 0.00 | 0.00 | 19 | 1009.6 |
| 20260502041532 | 80 | 360 | 0.0 | 1.7 | 0.00 | 0.00 | 0.00 | 19 | 1009.5 |
| 20260502041010 | 80 | 0 | 0.0 | 1.7 | 0.00 | 0.00 | 0.00 | 19 | 1009.4 |
| 20260502040507 | 80 | 0 | 0.0 | 1.7 | 0.00 | 0.00 | 0.00 | 19 | 1009.5 |
| 20260502040028 | 80 | 360 | 0.0 | 1.7 | 0.00 | 0.00 | 0.00 | 20 | 1009.5 |
| 20260502035510 | 81 | 0 | 0.0 | 1.7 | 0.00 | 0.00 | 0.00 | 19 | 1009.3 |
| 20260502035010 | 81 | 217 | 0.0 | 1.7 | 0.00 | 0.00 | 0.00 | 19 | 1009.3 |
| 20260502034528 | 81 | 0 | 0.0 | 1.7 | 0.00 | 0.00 | 0.00 | 18 | 1009.2 |
| 20260502034010 | 82 | 0 | 0.0 | 1.7 | 0.00 | 0.00 | 0.00 | 18 | 1009.2 |
| 20260502033510 | 82 | 0 | 0.0 | 1.7 | 0.00 | 0.00 | 0.00 | 17 | 1009.1 |
| 20260502033037 | 82 | 0 | 0.0 | 1.7 | 0.00 | 0.00 | 0.00 | 17 | 1009.1 |
| 20260502032513 | 83 | 219 | 0.0 | 1.7 | 0.00 | 0.00 | 0.00 | 17 | 1009.0 |
| 20260502032008 | 83 | 219 | 0.0 | 1.7 | 0.00 | 0.00 | 0.00 | 17 | 1008.9 |
| 20260502031528 | 83 | 0 | 0.0 | 1.7 | 0.00 | 0.00 | 0.00 | 17 | 1008.8 |
| 20260502031010 | 83 | 0 | 0.0 | 1.7 | 0.00 | 0.00 | 0.00 | 17 | 1008.8 |
| 20260502030508 | 83 | 219 | 0.0 | 1.7 | 0.00 | 0.00 | 0.00 | 17 | 1008.7 |
| 20260502030030 | 84 | 0 | 0.0 | 1.7 | 0.00 | 0.00 | 0.00 | 17 | 1008.7 |
| 20260502025510 | 84 | 0 | 0.0 | 1.7 | 0.00 | 0.00 | 0.00 | 17 | 1008.6 |
| 20260502025011 | 84 | 0 | 0.0 | 1.7 | 0.00 | 0.00 | 0.00 | 17 | 1008.5 |
| 20260502024526 | 85 | 0 | 0.0 | 2.6 | 0.00 | 0.00 | 0.00 | 17 | 1008.5 |
| 20260502024015 | 85 | 219 | 0.0 | 2.6 | 0.00 | 0.00 | 0.00 | 16 | 1008.5 |
| 20260502023509 | 85 | 220 | 0.0 | 2.6 | 0.00 | 0.00 | 0.00 | 16 | 1008.4 |
| 20260502023028 | 86 | 221 | 0.9 | 2.6 | 0.00 | 0.00 | 0.00 | 16 | 1008.3 |
| 20260502022509 | 86 | 0 | 0.0 | 2.6 | 0.00 | 0.00 | 0.00 | 16 | 1008.3 |
| 20260502022011 | 86 | 0 | 0.0 | 2.6 | 0.00 | 0.00 | 0.00 | 16 | 1008.3 |
| 20260502021531 | 87 | 220 | 0.0 | 1.7 | 0.00 | 0.00 | 0.00 | 16 | 1008.3 |
| 20260502021008 | 87 | 219 | 0.9 | 1.7 | 0.00 | 0.00 | 0.00 | 16 | 1008.3 |
| 20260502020510 | 87 | 219 | 0.0 | 2.6 | 0.00 | 0.00 | 0.00 | 16 | 1008.2 |
| 20260502020028 | 87 | 0 | 0.0 | 3.5 | 0.00 | 0.00 | 0.00 | 16 | 1008.1 |
| 20260502015510 | 87 | 219 | 0.9 | 3.5 | 0.00 | 0.00 | 0.00 | 16 | 1008.1 |
| 20260502015012 | 87 | 227 | 0.9 | 3.5 | 0.00 | 0.00 | 0.00 | 16 | 1008.0 |
| 20260502014530 | 88 | 236 | 0.9 | 3.5 | 0.00 | 0.00 | 0.00 | 16 | 1008.1 |
| 20260502014010 | 88 | 247 | 0.9 | 3.5 | 0.00 | 0.00 | 0.00 | 16 | 1008.2 |
| 20260502013510 | 88 | 0 | 0.0 | 3.5 | 0.00 | 0.00 | 0.00 | 16 | 1008.1 |
| 20260502013028 | 88 | 252 | 0.9 | 3.5 | 0.00 | 0.00 | 0.00 | 16 | 1008.2 |
| 20260502012510 | 88 | 249 | 0.9 | 3.5 | 0.00 | 0.00 | 0.00 | 16 | 1008.2 |
| 20260502012008 | 88 | 243 | 0.9 | 4.3 | 0.00 | 0.00 | 0.00 | 16 | 1008.1 |
| 20260502011530 | 89 | 241 | 0.9 | 4.3 | 0.00 | 0.00 | 0.00 | 16 | 1008.1 |
| 20260502011008 | 89 | 242 | 0.9 | 5.2 | 0.00 | 0.00 | 0.00 | 18 | 1008.2 |
| 20260502010509 | 89 | 235 | 1.7 | 5.2 | 0.00 | 0.00 | 0.00 | 17 | 1008.2 |
| 20260502010030 | 89 | 272 | 1.7 | 5.2 | 0.00 | 0.00 | 0.00 | 17 | 1008.3 |
| 20260502005513 | 89 | 0 | 0.9 | 9.6 | 0.00 | 0.00 | 0.00 | 17 | 1008.2 |
| 20260502005010 | 89 | 228 | 3.5 | 9.6 | 0.00 | 0.00 | 0.00 | 17 | 1008.2 |
| 20260502004526 | 89 | 254 | 1.7 | 7.0 | 0.00 | 0.00 | 0.00 | 17 | 1008.2 |
| 20260502004009 | 89 | 221 | 1.7 | 8.7 | 0.00 | 0.00 | 0.00 | 17 | 1008.3 |
| 20260502003509 | 89 | 274 | 1.7 | 8.7 | 0.00 | 0.00 | 0.00 | 17 | 1008.3 |
| 20260502003028 | 90 | 284 | 3.5 | 7.8 | 0.00 | 0.00 | 0.00 | 16 | 1008.2 |
| 20260502002513 | 90 | 249 | 1.7 | 8.7 | 0.00 | 0.00 | 0.00 | 17 | 1008.2 |
| 20260502002011 | 90 | 283 | 2.6 | 8.7 | 0.00 | 0.00 | 0.00 | 17 | 1008.3 |
| 20260502001532 | 90 | 306 | 1.7 | 11.3 | 0.00 | 0.00 | 0.00 | 17 | 1008.2 |
| 20260502001011 | 90 | 254 | 5.2 | 11.3 | 0.00 | 0.00 | 0.00 | 17 | 1008.3 |
| 20260502000512 | 90 | 292 | 2.6 | 8.7 | 0.00 | 0.00 | 0.00 | 17 | 1008.4 |
| 20260502000028 | 90 | 277 | 1.7 | 7.8 | 0.00 | 0.00 | 0.00 | 17 | 1008.3 |
| 20260501235511 | 90 | 315 | 2.6 | 8.7 | 0.00 | 0.00 | 0.00 | 17 | 1008.3 |
| 20260501235011 | 90 | 279 | 2.6 | 8.7 | 0.00 | 0.00 | 0.00 | 18 | 1008.2 |
| 20260501234530 | 90 | 284 | 1.7 | 7.0 | 0.00 | 0.00 | 0.00 | 17 | 1008.5 |
| 20260501234010 | 90 | 271 | 2.6 | 8.7 | 0.00 | 0.00 | 0.00 | 18 | 1008.4 |
| 20260501233510 | 90 | 312 | 1.7 | 8.7 | 0.00 | 0.00 | 0.00 | 19 | 1008.4 |
| 20260501233027 | 90 | 35 | 2.6 | 8.7 | 0.00 | 0.00 | 0.00 | 18 | 1008.5 |
| 20260501232516 | 90 | 303 | 1.7 | 10.4 | 0.00 | 0.00 | 0.00 | 19 | 1008.5 |
| 20260501232010 | 90 | 263 | 2.6 | 11.3 | 0.00 | 0.00 | 0.00 | 19 | 1008.5 |
| 20260501231528 | 90 | 238 | 3.5 | 11.3 | 0.00 | 0.00 | 0.00 | 18 | 1008.6 |
| 20260501231008 | 90 | 345 | 3.5 | 9.6 | 0.00 | 0.00 | 0.00 | 18 | 1008.5 |
| 20260501230509 | 90 | 263 | 3.5 | 9.6 | 0.00 | 0.00 | 0.00 | 19 | 1008.6 |
| 20260501230028 | 91 | 236 | 4.3 | 9.6 | 0.00 | 0.00 | 0.00 | 19 | 1008.7 |
| 20260501225509 | 91 | 315 | 1.7 | 9.6 | 0.00 | 0.00 | 0.00 | 18 | 1008.8 |
| 20260501225007 | 90 | 282 | 3.5 | 9.6 | 0.00 | 0.00 | 0.00 | 20 | 1008.7 |
| 20260501224529 | 90 | 272 | 2.6 | 9.6 | 0.00 | 0.00 | 0.00 | 19 | 1008.9 |
| 20260501224010 | 90 | 254 | 4.3 | 9.6 | 0.00 | 0.00 | 0.00 | 20 | 1008.9 |
| 20260501223509 | 90 | 264 | 4.3 | 9.6 | 0.00 | 0.00 | 0.00 | 20 | 1008.9 |
| 20260501223036 | 90 | 273 | 4.3 | 10.4 | 0.00 | 0.00 | 0.00 | 20 | 1009.0 |
| 20260501222511 | 90 | 302 | 4.3 | 13.0 | 0.00 | 0.00 | 0.00 | 21 | 1009.0 |
| 20260501222014 | 90 | 288 | 6.1 | 13.0 | 0.00 | 0.00 | 0.00 | 20 | 1009.1 |
| 20260501221531 | 90 | 265 | 3.5 | 13.9 | 0.00 | 0.00 | 0.00 | 20 | 1009.2 |
| 20260501221012 | 90 | 300 | 4.3 | 13.9 | 0.00 | 0.00 | 0.00 | 20 | 1009.1 |
| 20260501220508 | 91 | 252 | 7.8 | 13.9 | 0.00 | 0.00 | 0.00 | 21 | 1009.4 |
| 20260501220028 | 91 | 281 | 3.5 | 13.9 | 0.00 | 0.00 | 0.00 | 21 | 1009.3 |
| 20260501215510 | 90 | 286 | 2.6 | 13.9 | 0.00 | 0.00 | 0.00 | 19 | 1009.4 |
| 20260501215008 | 90 | 276 | 4.3 | 13.9 | 0.00 | 0.00 | 0.00 | 19 | 1009.4 |
| 20260501214533 | 90 | 223 | 3.5 | 11.3 | 0.00 | 0.00 | 0.00 | 21 | 1009.4 |
| 20260501214009 | 91 | 0 | 1.7 | 11.3 | 0.00 | 0.00 | 0.00 | 20 | 1009.5 |
| 20260501213512 | 91 | 283 | 5.2 | 8.7 | 0.00 | 0.00 | 0.00 | 20 | 1009.6 |
| 20260501213027 | 91 | 305 | 2.6 | 7.8 | 0.00 | 0.00 | 0.00 | 21 | 1009.7 |
| 20260501212508 | 91 | 15 | 2.6 | 8.7 | 0.00 | 0.00 | 0.00 | 20 | 1009.8 |
| 20260501212009 | 91 | 322 | 4.3 | 8.7 | 0.00 | 0.00 | 0.00 | 21 | 1009.8 |
| 20260501211547 | 91 | 159 | 1.7 | 7.0 | 0.00 | 0.00 | 0.00 | 20 | 1009.8 |
| 20260501211013 | 91 | 315 | 3.5 | 7.0 | 0.00 | 0.00 | 0.00 | 21 | 1010.0 |
| 20260501210509 | 91 | 0 | 0.9 | 7.8 | 0.00 | 0.00 | 0.00 | 22 | 1010.0 |
| 20260501210036 | 90 | 41 | 1.7 | 7.8 | 0.00 | 0.00 | 0.00 | 22 | 1010.1 |
| 20260501205507 | 90 | 257 | 3.5 | 7.8 | 0.00 | 0.00 | 0.00 | 22 | 1010.2 |
| 20260501205007 | 90 | 279 | 2.6 | 6.1 | 0.00 | 0.00 | 0.00 | 22 | 1010.4 |
| 20260501204529 | 90 | 329 | 0.0 | 7.0 | 0.00 | 0.00 | 0.00 | 23 | 1010.3 |
| 20260501204008 | 89 | 325 | 0.9 | 7.8 | 0.00 | 0.00 | 0.00 | 23 | 1010.6 |
| 20260501203508 | 89 | 323 | 1.7 | 7.8 | 0.00 | 0.00 | 0.00 | 22 | 1010.7 |
| 20260501203030 | 89 | 295 | 0.9 | 7.0 | 0.00 | 0.00 | 0.00 | 23 | 1010.6 |
| 20260501202509 | 89 | 339 | 1.7 | 7.0 | 0.00 | 0.00 | 0.00 | 24 | 1010.7 |
| 20260501202011 | 89 | 238 | 1.7 | 7.8 | 0.00 | 0.00 | 0.00 | 24 | 1010.8 |
| 20260501201529 | 88 | 234 | 1.7 | 7.8 | 0.00 | 0.00 | 0.00 | 23 | 1010.8 |
| 20260501201019 | 88 | 314 | 2.6 | 7.0 | 0.00 | 0.00 | 0.00 | 24 | 1010.8 |
| 20260501200517 | 88 | 277 | 0.9 | 8.7 | 0.00 | 0.00 | 0.00 | 23 | 1010.8 |
| 20260501200027 | 88 | 278 | 1.7 | 8.7 | 0.00 | 0.00 | 0.00 | 24 | 1010.8 |
| 20260501195510 | 88 | 0 | 3.5 | 8.7 | 0.00 | 0.00 | 0.00 | 25 | 1010.9 |
| 20260501195007 | 87 | 315 | 1.7 | 8.7 | 0.00 | 0.00 | 0.00 | 24 | 1011.0 |
| 20260501194526 | 88 | 262 | 2.6 | 8.7 | 0.00 | 0.00 | 0.00 | 24 | 1011.0 |
| 20260501194011 | 89 | 0 | 2.6 | 7.0 | 0.00 | 0.00 | 0.00 | 23 | 1011.0 |
| 20260501193513 | 89 | 259 | 0.9 | 5.2 | 0.00 | 0.00 | 0.00 | 25 | 1011.2 |
| 20260501193028 | 89 | 159 | 1.7 | 5.2 | 0.00 | 0.00 | 0.00 | 24 | 1011.3 |
| 20260501192508 | 89 | 140 | 1.7 | 4.3 | 0.00 | 0.00 | 0.00 | 23 | 1011.3 |
| 20260501192009 | 88 | 0 | 0.9 | 3.5 | 0.00 | 0.00 | 0.00 | 24 | 1011.4 |
| 20260501191527 | 88 | 34 | 0.9 | 5.2 | 0.00 | 0.00 | 0.00 | 23 | 1011.4 |
| 20260501191013 | 88 | 0 | 0.9 | 5.2 | 0.00 | 0.00 | 0.00 | 23 | 1011.4 |
| 20260501190508 | 87 | 0 | 0.9 | 4.3 | 0.00 | 0.00 | 0.00 | 25 | 1011.5 |
| 20260501190029 | 87 | 142 | 0.9 | 6.1 | 0.00 | 0.00 | 0.00 | 24 | 1011.5 |
| 20260501185511 | 87 | 0 | 1.7 | 6.1 | 0.00 | 0.00 | 0.00 | 24 | 1011.6 |
| 20260501185008 | 87 | 0 | 0.9 | 2.6 | 0.00 | 0.00 | 0.00 | 24 | 1011.8 |
| 20260501184528 | 87 | 0 | 0.0 | 5.2 | 0.00 | 0.00 | 0.00 | 24 | 1011.8 |
| 20260501184010 | 86 | 124 | 0.0 | 5.2 | 0.00 | 0.00 | 0.00 | 24 | 1012.0 |
| 20260501183511 | 86 | 140 | 0.9 | 7.0 | 0.00 | 0.00 | 0.00 | 25 | 1011.9 |
| 20260501183028 | 86 | 140 | 2.6 | 7.0 | 0.00 | 0.00 | 0.00 | 25 | 1012.0 |
| 20260501182509 | 85 | 89 | 0.9 | 5.2 | 0.00 | 0.00 | 0.00 | 27 | 1012.1 |
| 20260501182014 | 84 | 83 | 1.7 | 6.1 | 0.00 | 0.00 | 0.00 | 27 | 1012.2 |
| 20260501181527 | 84 | 68 | 1.7 | 6.1 | 0.00 | 0.00 | 0.00 | 27 | 1012.3 |
| 20260501181010 | 84 | 86 | 2.6 | 7.0 | 0.00 | 0.00 | 0.00 | 28 | 1012.4 |
| 20260501180510 | 83 | 0 | 0.9 | 7.0 | 0.00 | 0.00 | 0.00 | 29 | 1012.5 |
| 20260501180034 | 83 | 71 | 2.6 | 7.0 | 0.00 | 0.00 | 0.00 | 28 | 1012.6 |
| 20260501175508 | 83 | 41 | 1.7 | 4.3 | 0.00 | 0.00 | 0.00 | 28 | 1012.7 |
| 20260501175009 | 82 | 15 | 0.9 | 4.3 | 0.00 | 0.00 | 0.00 | 30 | 1012.6 |
| 20260501174529 | 82 | 16 | 1.7 | 4.3 | 0.00 | 0.00 | 0.00 | 28 | 1012.8 |
| 20260501174010 | 82 | 315 | 0.9 | 5.2 | 0.00 | 0.00 | 0.00 | 29 | 1012.8 |
| 20260501173511 | 82 | 266 | 0.9 | 5.2 | 0.00 | 0.00 | 0.00 | 29 | 1012.7 |
| 20260501173034 | 82 | 311 | 0.9 | 4.3 | 0.00 | 0.00 | 0.00 | 30 | 1012.8 |
| 20260501172510 | 81 | 299 | 1.7 | 4.3 | 0.00 | 0.00 | 0.00 | 29 | 1012.7 |
| 20260501172016 | 81 | 215 | 1.7 | 4.3 | 0.00 | 0.00 | 0.00 | 30 | 1012.9 |
| 20260501171526 | 81 | 208 | 0.9 | 5.2 | 0.00 | 0.00 | 0.00 | 32 | 1012.8 |
| 20260501171010 | 80 | 226 | 1.7 | 5.2 | 0.00 | 0.00 | 0.00 | 30 | 1012.8 |
| 20260501170508 | 80 | 234 | 0.9 | 5.2 | 0.00 | 0.00 | 0.00 | 31 | 1012.8 |
| 20260501170036 | 80 | 264 | 0.9 | 5.2 | 0.00 | 0.00 | 0.00 | 31 | 1012.8 |
| 20260501165509 | 80 | 289 | 1.7 | 4.3 | 0.00 | 0.00 | 0.00 | 32 | 1012.8 |
| 20260501165015 | 79 | 306 | 0.9 | 3.5 | 0.00 | 0.00 | 0.00 | 34 | 1012.8 |
| 20260501164529 | 79 | 311 | 0.0 | 4.3 | 0.00 | 0.00 | 0.00 | 33 | 1012.8 |
| 20260501164007 | 79 | 326 | 0.9 | 4.3 | 0.00 | 0.00 | 0.00 | 32 | 1012.8 |
| 20260501163508 | 79 | 320 | 1.7 | 4.3 | 0.00 | 0.00 | 0.00 | 32 | 1012.7 |
| 20260501163029 | 79 | 309 | 0.9 | 3.5 | 0.00 | 0.00 | 0.00 | 33 | 1012.7 |
| 20260501162510 | 78 | 350 | 0.9 | 7.8 | 0.00 | 0.00 | 0.00 | 34 | 1012.8 |